Year,Month,Day,Hour,Minute,Value (Times are PST for temperature in C)
2014,07,19,00,00,17.60
2014,07,19,00,01,17.50
2014,07,19,00,02,17.50
2014,07,19,00,03,17.50
2014,07,19,00,04,17.40
2014,07,19,00,05,17.40
2014,07,19,00,06,17.40
2014,07,19,00,07,17.30
2014,07,19,00,08,17.30
2014,07,19,00,09,17.30
2014,07,19,00,10,17.30
2014,07,19,00,11,17.30
2014,07,19,00,12,17.30
2014,07,19,00,13,17.30
2014,07,19,00,14,17.30
2014,07,19,00,15,17.30
2014,07,19,00,16,17.30
2014,07,19,00,17,17.30
2014,07,19,00,18,17.30
2014,07,19,00,19,17.30
2014,07,19,00,20,17.30
2014,07,19,00,21,17.20
2014,07,19,00,22,17.20
2014,07,19,00,23,17.20
2014,07,19,00,24,17.20
2014,07,19,00,25,17.20
2014,07,19,00,26,17.10
2014,07,19,00,27,17.10
2014,07,19,00,28,17.10
2014,07,19,00,29,17.00
2014,07,19,00,30,17.00
2014,07,19,00,31,17.00
2014,07,19,00,32,17.00
2014,07,19,00,33,16.90
2014,07,19,00,34,16.90
2014,07,19,00,35,16.90
2014,07,19,00,36,16.90
2014,07,19,00,37,16.90
2014,07,19,00,38,16.90
2014,07,19,00,39,16.90
2014,07,19,00,40,16.90
2014,07,19,00,41,16.90
2014,07,19,00,42,16.90
2014,07,19,00,43,16.90
2014,07,19,00,44,16.80
2014,07,19,00,45,16.80
2014,07,19,00,46,16.90
2014,07,19,00,47,16.80
2014,07,19,00,48,16.80
2014,07,19,00,49,16.90
2014,07,19,00,50,16.90
2014,07,19,00,51,16.90
2014,07,19,00,52,16.90
2014,07,19,00,53,17.00
2014,07,19,00,54,17.10
2014,07,19,00,55,17.10
2014,07,19,00,56,17.20
2014,07,19,00,57,17.20
2014,07,19,00,58,17.20
2014,07,19,00,59,17.20
2014,07,19,01,00,17.10
2014,07,19,01,01,17.10
2014,07,19,01,02,17.10
2014,07,19,01,03,17.10
2014,07,19,01,04,17.10
2014,07,19,01,05,17.10
2014,07,19,01,06,17.10
2014,07,19,01,07,17.10
2014,07,19,01,08,17.10
2014,07,19,01,09,17.10
2014,07,19,01,10,17.10
2014,07,19,01,11,17.10
2014,07,19,01,12,17.10
2014,07,19,01,13,17.10
2014,07,19,01,14,17.10
2014,07,19,01,15,17.10
2014,07,19,01,16,17.10
2014,07,19,01,17,17.10
2014,07,19,01,18,17.10
2014,07,19,01,19,17.10
2014,07,19,01,20,17.10
2014,07,19,01,21,17.00
2014,07,19,01,22,16.90
2014,07,19,01,23,16.90
2014,07,19,01,24,16.80
2014,07,19,01,25,16.80
2014,07,19,01,26,16.70
2014,07,19,01,27,16.70
2014,07,19,01,28,16.70
2014,07,19,01,29,16.70
2014,07,19,01,30,16.60
2014,07,19,01,31,16.60
2014,07,19,01,32,16.60
2014,07,19,01,33,16.60
2014,07,19,01,34,16.60
2014,07,19,01,35,16.60
2014,07,19,01,36,16.70
2014,07,19,01,37,16.70
2014,07,19,01,38,16.70
2014,07,19,01,39,16.70
2014,07,19,01,40,16.70
2014,07,19,01,41,16.70
2014,07,19,01,42,16.70
2014,07,19,01,43,16.70
2014,07,19,01,44,16.60
2014,07,19,01,45,16.60
2014,07,19,01,46,16.60
2014,07,19,01,47,16.60
2014,07,19,01,48,16.60
2014,07,19,01,49,16.60
2014,07,19,01,50,16.50
2014,07,19,01,51,16.50
2014,07,19,01,52,16.50
2014,07,19,01,53,16.50
2014,07,19,01,54,16.50
2014,07,19,01,55,16.50
2014,07,19,01,56,16.50
2014,07,19,01,57,16.50
2014,07,19,01,58,16.50
2014,07,19,01,59,16.50
2014,07,19,02,00,16.50
2014,07,19,02,01,16.50
2014,07,19,02,02,16.50
2014,07,19,02,03,16.50
2014,07,19,02,04,16.50
2014,07,19,02,05,16.60
2014,07,19,02,06,16.60
2014,07,19,02,07,16.60
2014,07,19,02,08,16.60
2014,07,19,02,09,16.60
2014,07,19,02,10,16.70
2014,07,19,02,11,16.70
2014,07,19,02,12,16.70
2014,07,19,02,13,16.80
2014,07,19,02,14,16.80
2014,07,19,02,15,16.80
2014,07,19,02,16,16.80
2014,07,19,02,17,16.80
2014,07,19,02,18,16.80
2014,07,19,02,19,16.90
2014,07,19,02,20,16.90
2014,07,19,02,21,17.00
2014,07,19,02,22,17.10
2014,07,19,02,23,17.10
2014,07,19,02,24,17.20
2014,07,19,02,25,17.20
2014,07,19,02,26,17.20
2014,07,19,02,27,17.20
2014,07,19,02,28,17.20
2014,07,19,02,29,17.30
2014,07,19,02,30,17.30
2014,07,19,02,31,17.30
2014,07,19,02,32,17.30
2014,07,19,02,33,17.30
2014,07,19,02,34,17.20
2014,07,19,02,35,17.20
2014,07,19,02,36,17.20
2014,07,19,02,37,17.10
2014,07,19,02,38,17.10
2014,07,19,02,39,17.20
2014,07,19,02,40,17.20
2014,07,19,02,41,17.30
2014,07,19,02,42,17.30
2014,07,19,02,43,17.30
2014,07,19,02,44,17.30
2014,07,19,02,45,17.30
2014,07,19,02,46,17.40
2014,07,19,02,47,17.40
2014,07,19,02,48,17.40
2014,07,19,02,49,17.40
2014,07,19,02,50,17.40
2014,07,19,02,51,17.40
2014,07,19,02,52,17.40
2014,07,19,02,53,17.40
2014,07,19,02,54,17.40
2014,07,19,02,55,17.40
2014,07,19,02,56,17.40
2014,07,19,02,57,17.40
2014,07,19,02,58,17.30
2014,07,19,02,59,17.30
2014,07,19,03,00,17.30
2014,07,19,03,01,17.30
2014,07,19,03,02,17.30
2014,07,19,03,03,17.30
2014,07,19,03,04,17.30
2014,07,19,03,05,17.30
2014,07,19,03,06,17.30
2014,07,19,03,07,17.30
2014,07,19,03,08,17.40
2014,07,19,03,09,17.40
2014,07,19,03,10,17.40
2014,07,19,03,11,17.40
2014,07,19,03,12,17.40
2014,07,19,03,13,17.40
2014,07,19,03,14,17.40
2014,07,19,03,15,17.30
2014,07,19,03,16,17.30
2014,07,19,03,17,17.30
2014,07,19,03,18,17.30
2014,07,19,03,19,17.30
2014,07,19,03,20,17.30
2014,07,19,03,21,17.30
2014,07,19,03,22,17.30
2014,07,19,03,23,17.30
2014,07,19,03,24,17.20
2014,07,19,03,25,17.20
2014,07,19,03,26,17.20
2014,07,19,03,27,17.20
2014,07,19,03,28,17.20
2014,07,19,03,29,17.20
2014,07,19,03,30,17.30
2014,07,19,03,31,17.30
2014,07,19,03,32,17.30
2014,07,19,03,33,17.30
2014,07,19,03,34,17.30
2014,07,19,03,35,17.30
2014,07,19,03,36,17.30
2014,07,19,03,37,17.30
2014,07,19,03,38,17.30
2014,07,19,03,39,17.30
2014,07,19,03,40,17.30
2014,07,19,03,41,17.30
2014,07,19,03,42,17.30
2014,07,19,03,43,17.30
2014,07,19,03,44,17.30
2014,07,19,03,45,17.30
2014,07,19,03,46,17.30
2014,07,19,03,47,17.30
2014,07,19,03,48,17.30
2014,07,19,03,49,17.30
2014,07,19,03,50,17.30
2014,07,19,03,51,17.40
2014,07,19,03,52,17.40
2014,07,19,03,53,17.40
2014,07,19,03,54,17.40
2014,07,19,03,55,17.40
2014,07,19,03,56,17.40
2014,07,19,03,57,17.40
2014,07,19,03,58,17.40
2014,07,19,03,59,17.40
2014,07,19,04,00,17.40
2014,07,19,04,01,17.40
2014,07,19,04,02,17.40
2014,07,19,04,03,17.40
2014,07,19,04,04,17.40
2014,07,19,04,05,17.40
2014,07,19,04,06,17.30
2014,07,19,04,07,17.40
2014,07,19,04,08,17.40
2014,07,19,04,09,17.40
2014,07,19,04,10,17.40
2014,07,19,04,11,17.40
2014,07,19,04,12,17.40
2014,07,19,04,13,17.40
2014,07,19,04,14,17.40
2014,07,19,04,15,17.40
2014,07,19,04,16,17.40
2014,07,19,04,17,17.50
2014,07,19,04,18,17.50
2014,07,19,04,19,17.50
2014,07,19,04,20,17.60
2014,07,19,04,21,17.60
2014,07,19,04,22,17.60
2014,07,19,04,23,17.60
2014,07,19,04,24,17.60
2014,07,19,04,25,17.70
2014,07,19,04,26,17.70
2014,07,19,04,27,17.70
2014,07,19,04,28,17.70
2014,07,19,04,29,17.70
2014,07,19,04,30,17.70
2014,07,19,04,31,17.70
2014,07,19,04,32,17.70
2014,07,19,04,33,17.70
2014,07,19,04,34,17.70
2014,07,19,04,35,17.60
2014,07,19,04,36,17.60
2014,07,19,04,37,17.60
2014,07,19,04,38,17.50
2014,07,19,04,39,17.50
2014,07,19,04,40,17.50
2014,07,19,04,41,17.40
2014,07,19,04,42,17.40
2014,07,19,04,43,17.40
2014,07,19,04,44,17.40
2014,07,19,04,45,17.40
2014,07,19,04,46,17.40
2014,07,19,04,47,17.30
2014,07,19,04,48,17.40
2014,07,19,04,49,17.40
2014,07,19,04,50,17.40
2014,07,19,04,51,17.40
2014,07,19,04,52,17.40
2014,07,19,04,53,17.40
2014,07,19,04,54,17.40
2014,07,19,04,55,17.40
2014,07,19,04,56,17.40
2014,07,19,04,57,17.40
2014,07,19,04,58,17.40
2014,07,19,04,59,17.50
2014,07,19,05,00,17.50
2014,07,19,05,01,17.50
2014,07,19,05,02,17.60
2014,07,19,05,03,17.60
2014,07,19,05,04,17.60
2014,07,19,05,05,17.60
2014,07,19,05,06,17.60
2014,07,19,05,07,17.70
2014,07,19,05,08,17.70
2014,07,19,05,09,17.70
2014,07,19,05,10,17.70
2014,07,19,05,11,17.70
2014,07,19,05,12,17.60
2014,07,19,05,13,17.60
2014,07,19,05,14,17.60
2014,07,19,05,15,17.60
2014,07,19,05,16,17.60
2014,07,19,05,17,17.60
2014,07,19,05,18,17.60
2014,07,19,05,19,17.60
2014,07,19,05,20,17.50
2014,07,19,05,21,17.40
2014,07,19,05,22,17.40
2014,07,19,05,23,17.40
2014,07,19,05,24,17.40
2014,07,19,05,25,17.40
2014,07,19,05,26,17.40
2014,07,19,05,27,17.40
2014,07,19,05,28,17.40
2014,07,19,05,29,17.40
2014,07,19,05,30,17.40
2014,07,19,05,31,17.40
2014,07,19,05,32,17.40
2014,07,19,05,33,17.40
2014,07,19,05,34,17.40
2014,07,19,05,35,17.40
2014,07,19,05,36,17.40
2014,07,19,05,37,17.40
2014,07,19,05,38,17.40
2014,07,19,05,39,17.40
2014,07,19,05,40,17.50
2014,07,19,05,41,17.50
2014,07,19,05,42,17.50
2014,07,19,05,43,17.50
2014,07,19,05,44,17.60
2014,07,19,05,45,17.70
2014,07,19,05,46,17.80
2014,07,19,05,47,17.90
2014,07,19,05,48,18.00
2014,07,19,05,49,18.10
2014,07,19,05,50,18.20
2014,07,19,05,51,18.30
2014,07,19,05,52,18.40
2014,07,19,05,53,18.40
2014,07,19,05,54,18.50
2014,07,19,05,55,18.50
2014,07,19,05,56,18.50
2014,07,19,05,57,18.50
2014,07,19,05,58,18.50
2014,07,19,05,59,18.50
2014,07,19,06,00,18.50
2014,07,19,06,01,18.50
2014,07,19,06,02,18.50
2014,07,19,06,03,18.50
2014,07,19,06,04,18.50
2014,07,19,06,05,18.50
2014,07,19,06,06,18.50
2014,07,19,06,07,18.50
2014,07,19,06,08,18.50
2014,07,19,06,09,18.50
2014,07,19,06,10,18.50
2014,07,19,06,11,18.50
2014,07,19,06,12,18.50
2014,07,19,06,13,18.50
2014,07,19,06,14,18.60
2014,07,19,06,15,18.60
2014,07,19,06,16,18.60
2014,07,19,06,17,18.70
2014,07,19,06,18,18.70
2014,07,19,06,19,18.80
2014,07,19,06,20,18.80
2014,07,19,06,21,18.90
2014,07,19,06,22,18.90
2014,07,19,06,23,18.90
2014,07,19,06,24,18.80
2014,07,19,06,25,18.80
2014,07,19,06,26,18.80
2014,07,19,06,27,18.80
2014,07,19,06,28,18.80
2014,07,19,06,29,18.90
2014,07,19,06,30,18.90
2014,07,19,06,31,18.90
2014,07,19,06,32,19.00
2014,07,19,06,33,19.00
2014,07,19,06,34,19.10
2014,07,19,06,35,19.20
2014,07,19,06,36,19.40
2014,07,19,06,37,19.50
2014,07,19,06,38,19.60
2014,07,19,06,39,19.70
2014,07,19,06,40,19.80
2014,07,19,06,41,19.80
2014,07,19,06,42,20.00
2014,07,19,06,43,20.10
2014,07,19,06,44,20.10
2014,07,19,06,45,20.10
2014,07,19,06,46,20.20
2014,07,19,06,47,20.10
2014,07,19,06,48,20.10
2014,07,19,06,49,20.10
2014,07,19,06,50,20.20
2014,07,19,06,51,20.20
2014,07,19,06,52,20.30
2014,07,19,06,53,20.30
2014,07,19,06,54,20.30
2014,07,19,06,55,20.30
2014,07,19,06,56,20.30
2014,07,19,06,57,20.40
2014,07,19,06,58,20.40
2014,07,19,06,59,20.40
2014,07,19,07,00,20.50
2014,07,19,07,01,20.50
2014,07,19,07,02,20.50
2014,07,19,07,03,20.60
2014,07,19,07,04,20.60
2014,07,19,07,05,20.60
2014,07,19,07,06,20.50
2014,07,19,07,07,20.40
2014,07,19,07,08,20.30
2014,07,19,07,09,20.20
2014,07,19,07,10,20.10
2014,07,19,07,11,20.00
2014,07,19,07,12,19.90
2014,07,19,07,13,19.80
2014,07,19,07,14,19.80
2014,07,19,07,15,19.70
2014,07,19,07,16,19.70
2014,07,19,07,17,19.60
2014,07,19,07,18,19.60
2014,07,19,07,19,19.60
2014,07,19,07,20,19.50
2014,07,19,07,21,19.50
2014,07,19,07,22,19.50
2014,07,19,07,23,19.40
2014,07,19,07,24,19.40
2014,07,19,07,25,19.40
2014,07,19,07,26,19.40
2014,07,19,07,27,19.40
2014,07,19,07,28,19.40
2014,07,19,07,29,19.40
2014,07,19,07,30,19.40
2014,07,19,07,31,19.50
2014,07,19,07,32,19.50
2014,07,19,07,33,19.50
2014,07,19,07,34,19.50
2014,07,19,07,35,19.60
2014,07,19,07,36,19.60
2014,07,19,07,37,19.60
2014,07,19,07,38,19.60
2014,07,19,07,39,19.60
2014,07,19,07,40,19.60
2014,07,19,07,41,19.60
2014,07,19,07,42,19.60
2014,07,19,07,43,19.70
2014,07,19,07,44,19.70
2014,07,19,07,45,19.70
2014,07,19,07,46,19.80
2014,07,19,07,47,19.80
2014,07,19,07,48,19.80
2014,07,19,07,49,19.80
2014,07,19,07,50,19.80
2014,07,19,07,51,19.80
2014,07,19,07,52,19.80
2014,07,19,07,53,19.80
2014,07,19,07,54,19.90
2014,07,19,07,55,19.90
2014,07,19,07,56,19.90
2014,07,19,07,57,19.90
2014,07,19,07,58,20.00
2014,07,19,07,59,20.10
2014,07,19,08,00,20.20
2014,07,19,08,01,20.30
2014,07,19,08,02,20.40
2014,07,19,08,03,20.40
2014,07,19,08,04,20.50
2014,07,19,08,05,20.60
2014,07,19,08,06,20.60
2014,07,19,08,07,20.70
2014,07,19,08,08,20.70
2014,07,19,08,09,20.70
2014,07,19,08,10,20.70
2014,07,19,08,11,20.70
2014,07,19,08,12,20.70
2014,07,19,08,13,20.70
2014,07,19,08,14,20.70
2014,07,19,08,15,20.70
2014,07,19,08,16,20.70
2014,07,19,08,17,20.70
2014,07,19,08,18,20.70
2014,07,19,08,19,20.70
2014,07,19,08,20,20.70
2014,07,19,08,21,20.70
2014,07,19,08,22,20.70
2014,07,19,08,23,20.70
2014,07,19,08,24,20.70
2014,07,19,08,25,20.70
2014,07,19,08,26,20.70
2014,07,19,08,27,20.70
2014,07,19,08,28,20.70
2014,07,19,08,29,20.70
2014,07,19,08,30,20.70
2014,07,19,08,31,20.70
2014,07,19,08,32,20.70
2014,07,19,08,33,20.70
2014,07,19,08,34,20.80
2014,07,19,08,35,20.80
2014,07,19,08,36,20.80
2014,07,19,08,37,20.80
2014,07,19,08,38,20.80
2014,07,19,08,39,20.80
2014,07,19,08,40,20.80
2014,07,19,08,41,20.80
2014,07,19,08,42,20.80
2014,07,19,08,43,20.80
2014,07,19,08,44,20.80
2014,07,19,08,45,20.80
2014,07,19,08,46,20.80
2014,07,19,08,47,20.80
2014,07,19,08,48,20.80
2014,07,19,08,49,20.80
2014,07,19,08,50,20.80
2014,07,19,08,51,20.80
2014,07,19,08,52,20.90
2014,07,19,08,53,20.90
2014,07,19,08,54,20.90
2014,07,19,08,55,20.90
2014,07,19,08,56,20.90
2014,07,19,08,57,20.90
2014,07,19,08,58,20.90
2014,07,19,08,59,20.90
2014,07,19,09,00,20.90
2014,07,19,09,01,20.80
2014,07,19,09,02,20.80
2014,07,19,09,03,20.80
2014,07,19,09,04,20.80
2014,07,19,09,05,20.80
2014,07,19,09,06,20.80
2014,07,19,09,07,20.80
2014,07,19,09,08,20.80
2014,07,19,09,09,20.80
2014,07,19,09,10,20.80
2014,07,19,09,11,20.80
2014,07,19,09,12,20.80
2014,07,19,09,13,20.80
2014,07,19,09,14,20.80
2014,07,19,09,15,20.80
2014,07,19,09,16,20.80
2014,07,19,09,17,20.80
2014,07,19,09,18,20.80
2014,07,19,09,19,20.80
2014,07,19,09,20,20.80
2014,07,19,09,21,20.80
2014,07,19,09,22,20.80
2014,07,19,09,23,20.80
2014,07,19,09,24,20.80
2014,07,19,09,25,20.80
2014,07,19,09,26,20.80
2014,07,19,09,27,20.80
2014,07,19,09,28,20.80
2014,07,19,09,29,20.80
2014,07,19,09,30,20.80
2014,07,19,09,31,20.80
2014,07,19,09,32,20.80
2014,07,19,09,33,20.80
2014,07,19,09,34,20.80
2014,07,19,09,35,20.80
2014,07,19,09,36,20.80
2014,07,19,09,37,20.80
2014,07,19,09,38,20.90
2014,07,19,09,39,20.90
2014,07,19,09,40,20.90
2014,07,19,09,41,20.90
2014,07,19,09,42,20.90
2014,07,19,09,43,20.90
2014,07,19,09,44,21.00
2014,07,19,09,45,20.90
2014,07,19,09,46,20.90
2014,07,19,09,47,20.90
2014,07,19,09,48,20.90
2014,07,19,09,49,20.90
2014,07,19,09,50,20.80
2014,07,19,09,51,20.80
2014,07,19,09,52,20.80
2014,07,19,09,53,20.80
2014,07,19,09,54,20.80
2014,07,19,09,55,20.80
2014,07,19,09,56,20.80
2014,07,19,09,57,20.80
2014,07,19,09,58,20.80
2014,07,19,09,59,20.80
2014,07,19,10,00,20.80
2014,07,19,10,01,20.90
2014,07,19,10,02,20.90
2014,07,19,10,03,20.90
2014,07,19,10,04,20.90
2014,07,19,10,05,20.90
2014,07,19,10,06,21.00
2014,07,19,10,07,21.00
2014,07,19,10,08,21.10
2014,07,19,10,09,21.10
2014,07,19,10,10,21.10
2014,07,19,10,11,21.10
2014,07,19,10,12,21.10
2014,07,19,10,13,21.10
2014,07,19,10,14,21.20
2014,07,19,10,15,21.20
2014,07,19,10,16,21.20
2014,07,19,10,17,21.20
2014,07,19,10,18,21.20
2014,07,19,10,19,21.30
2014,07,19,10,20,21.30
2014,07,19,10,21,21.30
2014,07,19,10,22,21.30
2014,07,19,10,23,21.40
2014,07,19,10,24,21.40
2014,07,19,10,25,21.40
2014,07,19,10,26,21.50
2014,07,19,10,27,21.60
2014,07,19,10,28,21.60
2014,07,19,10,29,21.70
2014,07,19,10,30,21.80
2014,07,19,10,31,21.80
2014,07,19,10,32,21.90
2014,07,19,10,33,22.00
2014,07,19,10,34,22.00
2014,07,19,10,35,22.10
2014,07,19,10,36,22.10
2014,07,19,10,37,22.10
2014,07,19,10,38,22.10
2014,07,19,10,39,22.10
2014,07,19,10,40,22.10
2014,07,19,10,41,22.10
2014,07,19,10,42,22.20
2014,07,19,10,43,22.20
2014,07,19,10,44,22.30
2014,07,19,10,45,22.50
2014,07,19,10,46,22.60
2014,07,19,10,47,22.70
2014,07,19,10,48,22.90
2014,07,19,10,49,22.90
2014,07,19,10,50,23.00
2014,07,19,10,51,23.00
2014,07,19,10,52,23.00
2014,07,19,10,53,23.00
2014,07,19,10,54,23.00
2014,07,19,10,55,23.00
2014,07,19,10,56,23.00
2014,07,19,10,57,22.90
2014,07,19,10,58,22.90
2014,07,19,10,59,22.90
2014,07,19,11,00,22.90
2014,07,19,11,01,22.90
2014,07,19,11,02,22.90
2014,07,19,11,03,22.90
2014,07,19,11,04,22.90
2014,07,19,11,05,22.90
2014,07,19,11,06,23.00
2014,07,19,11,07,23.10
2014,07,19,11,08,23.20
2014,07,19,11,09,23.20
2014,07,19,11,10,23.20
2014,07,19,11,11,23.20
2014,07,19,11,12,23.10
2014,07,19,11,13,23.00
2014,07,19,11,14,22.90
2014,07,19,11,15,23.00
2014,07,19,11,16,23.00
2014,07,19,11,17,23.10
2014,07,19,11,18,23.10
2014,07,19,11,19,23.20
2014,07,19,11,20,23.20
2014,07,19,11,21,23.20
2014,07,19,11,22,23.30
2014,07,19,11,23,23.30
2014,07,19,11,24,23.40
2014,07,19,11,25,23.40
2014,07,19,11,26,23.40
2014,07,19,11,27,23.40
2014,07,19,11,28,23.40
2014,07,19,11,29,23.30
2014,07,19,11,30,23.30
2014,07,19,11,31,23.30
2014,07,19,11,32,23.30
2014,07,19,11,33,23.20
2014,07,19,11,34,23.20
2014,07,19,11,35,23.20
2014,07,19,11,36,23.20
2014,07,19,11,37,23.30
2014,07,19,11,38,23.30
2014,07,19,11,39,23.40
2014,07,19,11,40,23.40
2014,07,19,11,41,23.50
2014,07,19,11,42,23.60
2014,07,19,11,43,23.60
2014,07,19,11,44,23.60
2014,07,19,11,45,23.70
2014,07,19,11,46,23.70
2014,07,19,11,47,23.70
2014,07,19,11,48,23.70
2014,07,19,11,49,23.70
2014,07,19,11,50,23.60
2014,07,19,11,51,23.60
2014,07,19,11,52,23.60
2014,07,19,11,53,23.60
2014,07,19,11,54,23.60
2014,07,19,11,55,23.60
2014,07,19,11,56,23.60
2014,07,19,11,57,23.60
2014,07,19,11,58,23.60
2014,07,19,11,59,23.70
2014,07,19,12,00,23.60
2014,07,19,12,01,23.60
2014,07,19,12,02,23.70
2014,07,19,12,03,23.80
2014,07,19,12,04,23.80
2014,07,19,12,05,23.90
2014,07,19,12,06,24.00
2014,07,19,12,07,24.00
2014,07,19,12,08,24.10
2014,07,19,12,09,24.10
2014,07,19,12,10,24.10
2014,07,19,12,11,24.10
2014,07,19,12,12,24.10
2014,07,19,12,13,24.20
2014,07,19,12,14,24.20
2014,07,19,12,15,24.30
2014,07,19,12,16,24.30
2014,07,19,12,17,24.30
2014,07,19,12,18,24.30
2014,07,19,12,19,24.30
2014,07,19,12,20,24.40
2014,07,19,12,21,24.40
2014,07,19,12,22,24.50
2014,07,19,12,23,24.40
2014,07,19,12,24,24.30
2014,07,19,12,25,24.20
2014,07,19,12,26,24.10
2014,07,19,12,27,24.00
2014,07,19,12,28,23.90
2014,07,19,12,29,23.80
2014,07,19,12,30,23.80
2014,07,19,12,31,23.90
2014,07,19,12,32,24.00
2014,07,19,12,33,24.10
2014,07,19,12,34,24.20
2014,07,19,12,35,24.30
2014,07,19,12,36,24.30
2014,07,19,12,37,24.30
2014,07,19,12,38,24.30
2014,07,19,12,39,24.20
2014,07,19,12,40,24.20
2014,07,19,12,41,24.20
2014,07,19,12,42,24.20
2014,07,19,12,43,24.20
2014,07,19,12,44,24.20
2014,07,19,12,45,24.20
2014,07,19,12,46,24.20
2014,07,19,12,47,24.10
2014,07,19,12,48,24.10
2014,07,19,12,49,24.10
2014,07,19,12,50,24.10
2014,07,19,12,51,24.00
2014,07,19,12,52,24.00
2014,07,19,12,53,24.10
2014,07,19,12,54,24.10
2014,07,19,12,55,24.10
2014,07,19,12,56,23.90
2014,07,19,12,57,23.90
2014,07,19,12,58,23.70
2014,07,19,12,59,23.50
2014,07,19,13,00,23.60
2014,07,19,13,01,23.60
2014,07,19,13,02,23.70
2014,07,19,13,03,23.90
2014,07,19,13,04,23.90
2014,07,19,13,05,23.90
2014,07,19,13,06,23.90
2014,07,19,13,07,23.90
2014,07,19,13,08,23.80
2014,07,19,13,09,23.70
2014,07,19,13,10,23.70
2014,07,19,13,11,23.80
2014,07,19,13,12,24.00
2014,07,19,13,13,24.10
2014,07,19,13,14,24.10
2014,07,19,13,15,23.90
2014,07,19,13,16,24.00
2014,07,19,13,17,23.90
2014,07,19,13,18,24.00
2014,07,19,13,19,24.10
2014,07,19,13,20,24.20
2014,07,19,13,21,24.20
2014,07,19,13,22,24.20
2014,07,19,13,23,24.20
2014,07,19,13,24,24.20
2014,07,19,13,25,24.10
2014,07,19,13,26,24.00
2014,07,19,13,27,23.90
2014,07,19,13,28,23.90
2014,07,19,13,29,23.90
2014,07,19,13,30,23.90
2014,07,19,13,31,24.00
2014,07,19,13,32,24.00
2014,07,19,13,33,24.00
2014,07,19,13,34,23.90
2014,07,19,13,35,23.80
2014,07,19,13,36,23.90
2014,07,19,13,37,23.90
2014,07,19,13,38,23.90
2014,07,19,13,39,23.90
2014,07,19,13,40,23.80
2014,07,19,13,41,23.80
2014,07,19,13,42,23.70
2014,07,19,13,43,23.70
2014,07,19,13,44,23.80
2014,07,19,13,45,23.80
2014,07,19,13,46,23.80
2014,07,19,13,47,23.80
2014,07,19,13,48,23.80
2014,07,19,13,49,23.70
2014,07,19,13,50,23.50
2014,07,19,13,51,23.50
2014,07,19,13,52,23.60
2014,07,19,13,53,23.70
2014,07,19,13,54,23.80
2014,07,19,13,55,23.90
2014,07,19,13,56,24.00
2014,07,19,13,57,24.00
2014,07,19,13,58,24.20
2014,07,19,13,59,24.30
2014,07,19,14,00,24.30
2014,07,19,14,01,24.30
2014,07,19,14,02,24.30
2014,07,19,14,03,24.20
2014,07,19,14,04,24.10
2014,07,19,14,05,24.00
2014,07,19,14,06,24.00
2014,07,19,14,07,24.00
2014,07,19,14,08,23.90
2014,07,19,14,09,23.90
2014,07,19,14,10,23.90
2014,07,19,14,11,23.90
2014,07,19,14,12,23.90
2014,07,19,14,13,23.90
2014,07,19,14,14,24.00
2014,07,19,14,15,24.00
2014,07,19,14,16,24.00
2014,07,19,14,17,23.90
2014,07,19,14,18,24.00
2014,07,19,14,19,24.00
2014,07,19,14,20,24.00
2014,07,19,14,21,23.90
2014,07,19,14,22,24.00
2014,07,19,14,23,23.90
2014,07,19,14,24,23.90
2014,07,19,14,25,24.00
2014,07,19,14,26,24.10
2014,07,19,14,27,24.10
2014,07,19,14,28,24.10
2014,07,19,14,29,24.10
2014,07,19,14,30,24.10
2014,07,19,14,31,24.10
2014,07,19,14,32,24.10
2014,07,19,14,33,24.10
2014,07,19,14,34,24.20
2014,07,19,14,35,24.20
2014,07,19,14,36,24.20
2014,07,19,14,37,24.10
2014,07,19,14,38,24.10
2014,07,19,14,39,24.20
2014,07,19,14,40,24.20
2014,07,19,14,41,24.20
2014,07,19,14,42,24.20
2014,07,19,14,43,24.30
2014,07,19,14,44,24.40
2014,07,19,14,45,24.40
2014,07,19,14,46,24.30
2014,07,19,14,47,24.30
2014,07,19,14,48,24.30
2014,07,19,14,49,24.30
2014,07,19,14,50,24.30
2014,07,19,14,51,24.20
2014,07,19,14,52,24.20
2014,07,19,14,53,24.20
2014,07,19,14,54,24.30
2014,07,19,14,55,24.40
2014,07,19,14,56,24.50
2014,07,19,14,57,24.70
2014,07,19,14,58,24.80
2014,07,19,14,59,24.80
2014,07,19,15,00,24.60
2014,07,19,15,01,24.60
2014,07,19,15,02,24.60
2014,07,19,15,03,24.60
2014,07,19,15,04,24.70
2014,07,19,15,05,24.70
2014,07,19,15,06,24.60
2014,07,19,15,07,24.60
2014,07,19,15,08,24.70
2014,07,19,15,09,24.60
2014,07,19,15,10,24.60
2014,07,19,15,11,24.70
2014,07,19,15,12,24.80
2014,07,19,15,13,24.80
2014,07,19,15,14,24.80
2014,07,19,15,15,24.70
2014,07,19,15,16,24.60
2014,07,19,15,17,24.50
2014,07,19,15,18,24.40
2014,07,19,15,19,24.40
2014,07,19,15,20,24.30
2014,07,19,15,21,24.30
2014,07,19,15,22,24.40
2014,07,19,15,23,24.40
2014,07,19,15,24,24.50
2014,07,19,15,25,24.40
2014,07,19,15,26,24.50
2014,07,19,15,27,24.50
2014,07,19,15,28,24.60
2014,07,19,15,29,24.60
2014,07,19,15,30,24.70
2014,07,19,15,31,24.60
2014,07,19,15,32,24.50
2014,07,19,15,33,24.50
2014,07,19,15,34,24.40
2014,07,19,15,35,24.30
2014,07,19,15,36,24.30
2014,07,19,15,37,24.30
2014,07,19,15,38,24.30
2014,07,19,15,39,24.40
2014,07,19,15,40,24.40
2014,07,19,15,41,24.50
2014,07,19,15,42,24.60
2014,07,19,15,43,24.60
2014,07,19,15,44,24.60
2014,07,19,15,45,24.70
2014,07,19,15,46,24.70
2014,07,19,15,47,24.70
2014,07,19,15,48,24.70
2014,07,19,15,49,24.70
2014,07,19,15,50,24.80
2014,07,19,15,51,24.90
2014,07,19,15,52,24.90
2014,07,19,15,53,24.90
2014,07,19,15,54,24.80
2014,07,19,15,55,24.80
2014,07,19,15,56,24.80
2014,07,19,15,57,24.80
2014,07,19,15,58,24.80
2014,07,19,15,59,24.60
2014,07,19,16,00,24.60
2014,07,19,16,01,24.60
2014,07,19,16,02,24.50
2014,07,19,16,03,24.40
2014,07,19,16,04,24.30
2014,07,19,16,05,24.20
2014,07,19,16,06,24.30
2014,07,19,16,07,24.20
2014,07,19,16,08,24.20
2014,07,19,16,09,24.20
2014,07,19,16,10,24.20
2014,07,19,16,11,24.20
2014,07,19,16,12,24.10
2014,07,19,16,13,24.00
2014,07,19,16,14,23.90
2014,07,19,16,15,23.80
2014,07,19,16,16,23.80
2014,07,19,16,17,23.80
2014,07,19,16,18,23.80
2014,07,19,16,19,23.80
2014,07,19,16,20,23.80
2014,07,19,16,21,23.90
2014,07,19,16,22,24.00
2014,07,19,16,23,24.10
2014,07,19,16,24,24.10
2014,07,19,16,25,24.10
2014,07,19,16,26,24.10
2014,07,19,16,27,24.10
2014,07,19,16,28,24.20
2014,07,19,16,29,24.20
2014,07,19,16,30,24.10
2014,07,19,16,31,24.20
2014,07,19,16,32,24.30
2014,07,19,16,33,24.20
2014,07,19,16,34,24.20
2014,07,19,16,35,24.20
2014,07,19,16,36,24.20
2014,07,19,16,37,24.30
2014,07,19,16,38,24.40
2014,07,19,16,39,24.40
2014,07,19,16,40,24.40
2014,07,19,16,41,24.30
2014,07,19,16,42,24.30
2014,07,19,16,43,24.20
2014,07,19,16,44,24.20
2014,07,19,16,45,24.10
2014,07,19,16,46,24.00
2014,07,19,16,47,24.10
2014,07,19,16,48,24.20
2014,07,19,16,49,24.10
2014,07,19,16,50,24.10
2014,07,19,16,51,24.20
2014,07,19,16,52,24.10
2014,07,19,16,53,23.80
2014,07,19,16,54,23.70
2014,07,19,16,55,23.60
2014,07,19,16,56,23.60
2014,07,19,16,57,23.70
2014,07,19,16,58,23.80
2014,07,19,16,59,23.80
2014,07,19,17,00,23.80
2014,07,19,17,01,23.80
2014,07,19,17,02,23.80
2014,07,19,17,03,23.70
2014,07,19,17,04,23.60
2014,07,19,17,05,23.50
2014,07,19,17,06,23.50
2014,07,19,17,07,23.40
2014,07,19,17,08,23.20
2014,07,19,17,09,23.10
2014,07,19,17,10,23.10
2014,07,19,17,11,23.20
2014,07,19,17,12,23.30
2014,07,19,17,13,23.40
2014,07,19,17,14,23.50
2014,07,19,17,15,23.60
2014,07,19,17,16,23.70
2014,07,19,17,17,23.80
2014,07,19,17,18,23.80
2014,07,19,17,19,23.80